#timestamp,LO_Frequency,Hit,StdDev 
1622023215.8,286046986.3,N
1622023235.6,286046957.5,Y
1622023255.4,286046971.2,P
1622023275.3,286046967.3,P
1622023295.1,286046965.2,P
1622023315.9,286046966.8,Y
1622023335.7,286046997.2,P
1622023355.5,286046992.0,N
1622023375.4,286046994.6,N
1622023395.2,286046989.7,N
1622023415.0,286046988.7,N
1622023415.9,286046988.7,N
1622023435.8,286046988.5,N
1622023455.6,286046991.5,N
1622023475.5,286046986.9,N
1622023495.3,286046986.7,N
1622023515.1,286046988.8,N
1622023535.9,286046993.8,N
1622023555.7,286046999.2,N
1622023575.5,286046996.9,N
1622023595.4,286046996.8,N
1622023615.2,286046993.1,N
1622023635.1,286046985.4,N
1622023636.0,286046985.4,N
1622023655.8,286046984.5,N
1622023675.6,286046986.4,N
1622023695.5,286046983.7,N
1622023715.3,286046990.8,N
1622023735.2,286046987.1,N
1622023755.9,286046989.9,N
1622023775.7,286046989.9,N
1622023795.6,286046993.2,N
1622023815.4,286046993.8,N
1622023835.2,286046996.4,N
1622023855.1,286046991.7,N
1622023856.0,286046991.7,N
1622023875.8,286046996.2,N
1622023895.7,286046991.8,N
1622023915.5,286046994.4,N
1622023935.3,286046996.7,N
1622023955.2,286046997.6,N
1622023975.0,286046999.4,N
1622023975.9,286046999.4,N
1622023995.8,286047000.2,N
1622024015.6,286047000.6,N
1622024035.4,286047012.2,N
1622024055.3,286047014.6,N
1622024075.1,286047021.9,Y
1622024095.8,286047029.3,P
1622024115.7,286047027.9,N
1622024135.5,286047028.1,N
1622024155.4,286047029.3,N
1622024175.2,286047027.7,N
1622024195.0,286047029.0,N
1622024195.9,286047029.0,N
1622024215.8,286047031.1,N
1622024235.6,286047032.8,Y
1622024255.5,286047006.4,P
1622024275.3,286047011.2,N
1622024295.2,286047003.8,N
1622024315.9,286047005.7,N
1622024335.7,286047008.7,N
1622024355.6,286047012.1,N
1622024375.4,286047009.5,N
1622024395.3,286047017.0,N
1622024415.1,286047013.2,N
1622024416.0,286047013.2,N
1622024435.8,286047015.0,N
1622024455.7,286047014.0,N
1622024475.5,286047006.6,N
1622024495.3,286046999.9,N
1622024515.2,286046993.1,N
1622024535.0,286046981.0,N
1622024535.9,286046981.0,N
1622024555.8,286046983.5,N
1622024575.6,286046978.7,N
1622024595.4,286046973.6,N
1622024615.3,286046964.1,N
1622024635.1,286046971.1,N
1622024655.9,286046979.3,N
1622024675.7,286046980.8,N
1622024695.5,286046979.8,N
1622024715.4,286046980.1,N
1622024735.2,286046981.3,N
1622024755.1,286046983.9,N
1622024756.0,286046983.9,N
1622024775.8,286046989.6,N
1622024795.6,286046994.2,N
1622024815.5,286046996.7,N
1622024835.3,286047002.8,N
1622024855.2,286047008.4,N
1622024875.9,286047013.6,N
1622024895.7,286047010.9,N
1622024915.6,286047014.8,N
1622024935.4,286047020.2,N
1622024955.2,286047021.0,N
1622024975.1,286047025.0,N
1622024976.0,286047025.0,N
1622024995.8,286047021.7,N
1622025015.7,286047019.1,N
1622025035.5,286047018.7,N
1622025055.3,286047014.7,N
1622025075.2,286047014.9,N
1622025095.0,286047015.1,N
1622025095.9,286047015.1,N
1622025115.8,286047009.5,N
1622025135.6,286047007.2,N
1622025155.4,286047003.2,N
1622025175.3,286047003.4,N
1622025195.1,286047005.6,N
1622025215.8,286047002.1,N
1622025235.7,286047003.5,N
1622025255.5,286047007.3,N
1622025275.4,286047006.7,N
1622025295.2,286047010.0,N
1622025315.0,286047015.5,N
1622025315.9,286047015.5,N
1622025335.8,286047014.2,N
1622025355.6,286047015.9,N
1622025375.4,286047014.8,N
1622025395.3,286047010.9,N
1622025415.1,286047012.1,N
1622025435.9,286047005.3,N
1622025455.7,286046994.9,N
1622025475.5,286046995.5,N
1622025495.4,286047003.6,N
1622025515.2,286047007.1,N
1622025535.1,286047012.2,N
1622025536.0,286047012.2,N
1622025555.8,286047011.5,N
1622025575.6,286047012.0,N
1622025595.5,286047010.3,N
1622025615.3,286047008.3,N
1622025635.1,286047011.8,N
1622025655.9,286047004.8,N
1622025675.7,286046995.5,N
1622025695.6,286046994.3,N
1622025715.4,286046997.7,N
1622025735.2,286046993.4,N
1622025755.1,286046994.3,N
1622025756.0,286046994.3,N
1622025775.8,286046991.8,N
1622025795.6,286046996.6,N
1622025815.5,286047002.3,N
1622025835.3,286047004.3,N
1622025855.2,286047005.8,N
1622025875.9,286046996.5,N
1622025895.7,286046992.0,N
1622025915.6,286046991.9,N
1622025935.4,286046988.3,N
1622025955.2,286046985.8,N
1622025975.1,286046990.8,N
1622025976.0,286046990.8,N
1622025995.8,286046994.6,N
1622026015.7,286046997.4,N
1622026035.5,286046998.9,N
1622026055.3,286046994.2,N
1622026075.2,286046987.7,N
1622026095.0,286046991.6,N
1622026095.9,286046991.6,N
1622026115.8,286046987.3,N
1622026135.6,286046992.0,N
1622026155.4,286046993.3,N
1622026175.3,286046990.8,N
1622026195.1,286046991.4,N
1622026215.8,286046991.6,N
1622026235.7,286046990.2,N
1622026255.5,286046992.5,N
1622026275.4,286046992.2,N
1622026295.2,286046994.8,N
1622026315.0,286046990.7,N
1622026315.9,286046990.7,N
1622026335.8,286046989.0,N
1622026355.6,286046983.7,Y
1622026375.5,286046990.9,P
1622026395.3,286046994.0,P
1622026415.1,286046991.7,P
1622026435.9,286046995.7,Y
1622026455.7,286047000.6,P
1622026475.5,286047003.8,N
1622026495.4,286047004.5,N
1622026515.2,286047005.4,N
1622026535.1,286046999.9,N
1622026536.0,286046999.9,N
1622026555.8,286047003.2,N
1622026575.6,286047006.5,N
1622026595.5,286047006.1,N
1622026615.3,286047011.0,N
1622026635.2,286047017.6,Y
1622026655.9,286047015.8,P
1622026675.7,286047021.0,P
1622026695.6,286047018.1,N
1622026715.4,286047018.5,N
1622026735.2,286047019.2,Y
1622026755.1,286047009.2,P
1622026756.0,286047009.2,P
1622026775.8,286047004.2,N
1622026795.7,286047001.6,N
